This is the latest recevied weather packets stored in our database for station/object DB5WY-13. If no packets are shown the sender has not sent any weather packets the latest 10 day(s).
| Time | Temp. | Humidity | Pressure | Rain* | Wind** | Luminosity | Snow |
|---|---|---|---|---|---|---|---|
| 1777102843 | 11.67° C | 65% | 1020.4 hPa | 0 mm | - | - | - |
| 1777102243 | 11.11° C | 66% | 1020.4 hPa | 0 mm | - | - | - |
| 1777101643 | 11.11° C | 65% | 1020.4 hPa | 0 mm | - | - | - |
| 1777101044 | 11.67° C | 64% | 1020.3 hPa | 0 mm | - | - | - |
| 1777100443 | 11.67° C | 62% | 1020.3 hPa | 0 mm | - | - | - |
| 1777099843 | 13.33° C | 61% | 1020.4 hPa | 0 mm | - | - | - |
| 1777099243 | 13.89° C | 62% | 1020.3 hPa | 0 mm | - | - | - |
| 1777098644 | 13.33° C | 67% | 1020.4 hPa | 0 mm | - | - | - |
| 1777098044 | 11.11° C | 71% | 1020.5 hPa | 0 mm | - | - | - |
| 1777097444 | 9.44° C | 72% | 1020.4 hPa | 0 mm | - | - | - |
| 1777096844 | 10° C | 74% | 1020.3 hPa | 0 mm | - | - | - |
| 1777096244 | 10° C | 78% | 1020.2 hPa | 0 mm | - | - | - |
| 1777095644 | 7.78° C | 85% | 1020.1 hPa | 0 mm | - | - | - |
| 1777095044 | 5° C | 86% | 1020.1 hPa | 0 mm | - | - | - |
| 1777094444 | 4.44° C | 86% | 1020.1 hPa | 0 mm | - | - | - |
| 1777093844 | 4.44° C | 88% | 1020 hPa | 0 mm | - | - | - |
| 1777093244 | 3.89° C | 89% | 1020 hPa | 0 mm | - | - | - |
| 1777092644 | 2.22° C | 88% | 1020 hPa | 0 mm | - | - | - |
| 1777092044 | 0.56° C | 87% | 1019.8 hPa | 0 mm | - | - | - |
| 1777091444 | 0° C | 85% | 1019.9 hPa | 0 mm | - | - | - |
| 1777090844 | 0° C | 85% | 1019.7 hPa | 0 mm | - | - | - |
| 1777090244 | 0° C | 85% | 1019.9 hPa | 0 mm | - | - | - |
| 1777089644 | 0° C | 84% | 1019.9 hPa | 0 mm | - | - | - |
| 1777089044 | 0.56° C | 85% | 1019.8 hPa | 0 mm | - | - | - |
| 1777088444 | 0.56° C | 84% | 1020.1 hPa | 0 mm | - | - | - |
* Rain latest hour (hover to see other rain measurements)
** Current wind speed in m/s (hover to see current wind gust speed)